217P/LINEAR (2025)

Japanese version
Home page
Updated on April 9, 2025

---------------------------------------------------------------------

* Profile

* Pictures

* Orbital Elements

Epoch 2024 Mar. 31.0 TT = JDT 2460400.5
T 2025 May 24.89641 TT                                  Rudenko
q   1.2264232            (2000.0)            P               Q
n   0.12571000     Peri.  247.00966     +0.95786313     -0.22260588
a   3.9465975      Node   125.38324     +0.26615310     +0.92548408
e   0.6892454      Incl.   12.86337     -0.10798493     +0.30647323
P   7.84
>From 3384 observations 2001 June 21-2024 May 1, mean residual 0".6.
     Nongravitational parameters A1 = +0.16, A2 = +0.0030.

* Finding Charts

* Magnitudes Graph

        H = 14.0  G = 0.15  [    ,-225]                       (             - 2024 Oct. 11)
        m1 = 10.3 + 5 log d + 15.0 log r(t - 10)  [-225,230]  (2024 Oct. 11 - 2026 Jan.  9)
        H = 14.0  G = 0.15  [ 230,    ]                       (2026 Jan.  9 -             )

---------------------------------------------------------------------

The orbital elements are published on M.P.E.C. 2024-J304.
The charts are made with StellaNavigator Ver.10 (AstroArts).
The magnitudes graphs are made with Comet for Windows.

---------------------------------------------------------------------

Copyright(C) Seiichi Yoshida (comet@aerith.net). All rights reserved.